Location: Bagnara
(41.0500°N, 14.7833°E)
Time: 00:36:28
(UTC+00:00)

Meteor 2-3 Rocket - Pass Details

Date: 02 November 2021
Orbit: 842 x 885 km, 81.2° (Epoch: 28 November)

Event Time Altitude Azimuth Distance (km) Brightness Sun altitude
Rises 17:43:11 0° 358° (N) 3,433 6.9 -20.8°
Reaches altitude 10° 17:45:50 10° 8° (N) 2,499 6.0 -21.3°
Enters shadow 17:49:03 28° 35° (NE) 1,578 4.8 -21.9°
